Tracking 33197 objects as of 18-Feb-2026
HD Live streaming from Space Station
objects crossing your sky now

STARLINK-31083

Track STARLINK-31083 now!
10-day predictions
STARLINK-31083 is classified as:


NORAD ID: 58670
Int'l Code: 2023-211D
Perigee: 489.5 km
Apogee: 490.9 km
Inclination: 43.0 °
Period: 94.3 minutes
Semi major axis: 6861 km
RCS: Unknown
Launch date: December 29, 2023
Source: United States (US)
Launch site: AIR FORCE EASTERN TEST RANGE (AFETR)
Your satellite tracking list
Your tracking list is empty




NASA's NSSDC Master Catalog

Two Line Element Set (TLE):
1 58670U 23211D   26049.43298759  .00001152  00000-0  51368-4 0  9999
2 58670  43.0005 193.6787 0000983 270.6162  89.4577 15.27573326119524
Source of the keplerian elements: AFSPC